Location: Newark
(42.8481°N, 0.4872°E)
Time: 22:41:03
(UTC+00:00)

Transit 2A - Pass Details

Date: 04 November 2020
Orbit: 595 x 963 km, 66.7° (Epoch: 03 December)

Event Time Altitude Azimuth Distance (km) Brightness Sun altitude
Rises 06:20:06 0° 336° (NNW) 3,475 9.0 -3.7°
Reaches altitude 10° 06:23:38 10° 356° (N) 2,460 8.4 -3.1°
Maximum altitude 06:27:14 17° 36° (NE) 1,930 8.3 -2.4°
Drops below altitude 10° 06:30:38 10° 76° (ENE) 2,291 9.5 -1.8°
Sets 06:33:44 0° 97° (E) 3,134 11.3 -1.3°
